Tracking 18987 objects as of 25-Feb-2018
HD Live streaming from Space Station
objects crossing your sky now

NOAA 16 DEB

Track NOAA 16 DEB now!
10-day predictions


NORAD ID: 41286
Int'l Code: 2000-055GN
Perigee: 804.8 km
Apogee: 854.5 km
Inclination: 99.0 °
Period: 101.3 minutes
Semi major axis: 7200 km
RCS: Unknown
Launch date: September 21, 2000
Source: United States (US)
Launch site: AIR FORCE WESTERN TEST RANGE (AFWTR)

Note: This is SATELLITE DEBRIS
aabbcc
Your satellite tracking list
Your tracking list is empty




NASA's NSSDC Master Catalog

Two Line Element Set (TLE):
1 41286U 00055GN  18056.19338514 -.00005800  00000-0 -26491-2 0  9994
2 41286  98.9815 145.3923 0034522 311.3132  48.5074 14.20833095112849
Source of the keplerian elements: AFSPC